[vc_row][vc_column width=”2/3″]

Nesenie raksti

Ziņas

[/vc_column][vc_column width=”1/3″ el_class=”sticky-column”]

Par Gliding.lv

[vc_column_text]Gliding.lv ir interneta vietne par planieriem un planierismu. Šeit būs atrodama informācija par iespējām pamēģināt, iesaistīties un organizēt planierisma aktivitātes. Izmanto Gliding.lv forumu, ja Tev ir kāda tēma diskusijai vai jautājums. Gliding.lv merķis ir informēt un apvienot planierisma interesentus, nodrošinot un apmainoties ar aktuālāko un arī bijušo. Lidojam![/vc_column_text][vc_column_text]
[/vc_column_text]

METAR

EVRA 021420Z 35013KT 9999 BKN018 SCT023CB 01/M02 Q1005 NOSIG

EVLA 021420Z AUTO 01007KT CAVOK 01/M03 Q1009

EVVA 021420Z AUTO 36008KT 9999 FEW041 01/M02 Q1008

Nesenie raksti

[/vc_column][/vc_row]

Pāriet uz rīkjoslu